Location: Newark
(58.8333°N, 23.5833°E)
Time: 04:28:37
(UTC+00:00)

METEOR M2 - Pass Details

Date: 11 December 2019
Orbit: 819 x 827 km, 98.5° (Epoch: 27 January)

Event Time Altitude Azimuth Distance (km) Brightness Sun altitude
Exits shadow 19:21:09 17° 313° (NW) 1,990 ? -42.4°
Drops below altitude 10° 19:22:43 10° 326° (NW) 2,432 ? -42.6°
Sets 19:25:29 0° 339° (NNW) 3,368 ? -42.9°
